[[{"header":{"parameterUnit":"m.s-1","parameterCategory":1,"la1":30.2991,"la2":30.254,"lo1":-89.0895,"lo2":-89.0444,"dy":0.0017,"dx":0.0017,"nx":28,"ny":28,"refTime":"2024-03-09T03:00:00:Z","depth":0,"parameterNumber":2,"parameterNumberName":"U-component_of_WINDS"},"data":[0,0,0,0,0,0,0,0,0,0,0,0,0,0,0,0,0,0,0,0,0,0,0,0,0,0,0,0,0,0,0,0,0,0,0,0,0,0,0,0,0,0,0,0,0,0,0,0,0,0,0,0,0,0,0,0,0,0,2.1657,2.1658,0,2.1719,2.172,2.172,2.1756,2.1756,2.1756,2.1756,2.1819,2.1821,2.1822,0,0,0,0,0,0,0,0,0,0,0,0,0,2.1573,2.1574,2.1657,2.1658,2.1659,2.1719,2.172,2.1721,2.1756,2.1756,2.1756,2.1756,2.1819,2.182,2.1822,0,0,0,0,0,0,0,0,0,0,0,0,0,2.162,2.1575,2.1657,2.1684,2.1687,2.1719,2.172,2.1721,2.1756,2.1756,2.1756,2.1756,2.1818,2.182,2.1823,2.1833,0,0,2.183,2.1831,0,0,0,0,0,0,0,0,2.1617,2.1623,2.1679,2.1682,2.1685,2.173,2.1713,2.1758,2.1756,2.1729,2.1756,2.1756,2.1789,2.1794,2.1805,2.1836,2.1839,2.183,2.1831,2.1832,2.1833,0,0,0,0,0,0,0,2.1614,2.162,2.1682,2.168,2.1684,2.1693,2.17,2.1722,2.1757,2.1732,2.1734,2.1741,2.1791,2.1803,2.1807,2.184,2.183,2.1832,2.1833,2.1834,2.1886,2.1886,0,0,0,0,0,0,2.1606,2.1617,2.168,2.1684,2.1651,2.1695,2.1702,2.1715,2.1757,2.1764,2.1741,2.1743,2.1799,2.1804,2.1809,2.1826,2.1832,2.1835,2.1836,2.1886,2.1886,2.1886,0,0,0,0,0,0,2.1604,2.1611,2.1677,2.1651,2.166,2.1696,2.171,2.1716,2.1728,2.1764,2.1771,2.1746,2.1799,2.1806,2.1828,2.1829,2.1836,2.1838,2.1886,2.1886,2.1886,2.186,0,0,0,0,0,0,2.1601,2.161,2.1614,2.1651,2.1662,2.1694,2.171,2.1717,2.1732,2.1735,2.1771,2.1777,2.18,2.1824,2.183,2.1832,2.184,2.1886,2.1886,2.1886,2.186,2.1859,2.1857,0,0,0,0,0,2.1598,2.1603,2.1614,2.1621,2.1667,2.1694,2.17,2.1726,2.1732,2.1737,2.1761,2.1776,2.1828,2.1826,2.1833,2.1836,2.1886,2.1886,2.1886,2.1861,2.1859,2.1857,0,0,0,0,0,0,2.1564,2.1608,2.1621,2.1637,2.1662,2.17,2.1706,2.1722,2.1745,2.1746,2.1777,2.1785,2.1805,2.1823,2.182,2.185,2.1859,2.1861,2.1838,2.1836,2.1834,2.1829,2.1842,0,0,0,0,0,2.1559,2.1576,2.1614,2.1625,2.1637,2.1669,2.1682,2.17,2.1727,2.1737,2.1762,2.1788,2.181,2.1824,2.1846,2.1864,2.1873,2.187,2.1868,2.1866,2.1867,2.188,2.188,2.1886,2.1886,2.1886,0,0,2.1547,2.1574,2.1583,2.1619,2.164,2.1659,2.1678,2.1696,2.1711,2.174,2.1762,2.1782,2.1813,2.1833,2.1843,2.1849,2.1868,2.1866,2.1865,2.1866,2.188,2.188,2.1879,2.1886,2.1886,2.1886,0,0,2.1536,2.1557,2.157,2.1591,2.1623,2.1645,2.1649,2.1685,2.1699,2.1723,2.1746,2.1765,2.1802,2.1823,2.1839,2.1841,2.1857,2.1847,2.1838,2.1851,2.185,2.185,2.1852,2.1852,2.1848,2.1848,2.1848,0,2.1517,2.1546,2.1574,2.1593,2.1609,2.1637,2.1652,2.1671,2.1709,2.172,2.1726,2.1775,2.1798,2.1825,2.1826,2.1837,2.1843,2.1843,2.1848,2.1848,2.1848,2.1851,2.1851,2.1847,2.1847,2.1847,2.1847,0,2.1523,2.1543,2.155,2.1587,2.1604,2.162,2.1652,2.1667,2.1684,2.1706,2.1731,2.176,2.179,2.1798,2.1814,2.1828,2.1831,2.1842,2.1851,2.1846,2.1849,2.185,2.1845,2.1845,2.1846,2.1846,0,0,2.149,2.1544,2.1546,2.1565,2.1604,2.162,2.1639,2.1669,2.1682,2.1707,2.1725,2.1758,2.1769,2.1787,2.1807,2.1818,2.182,2.1828,2.183,2.1827,2.184,2.1832,2.1832,2.1832,2.1832,2.1832,2.1838,0,2.1485,2.1519,2.1547,2.1571,2.1591,2.162,2.1637,2.1664,2.1686,2.1707,2.1731,2.1755,2.1767,2.1779,2.1791,2.1817,2.1823,2.1817,2.1849,2.185,2.1841,2.1833,2.1824,2.1828,2.1839,2.1839,2.1839,0,2.1483,2.151,2.1536,2.1576,2.1585,2.16,2.1631,2.1651,2.1683,2.1698,2.172,2.1741,2.1764,2.1772,2.1806,2.1801,2.1816,2.1832,2.1832,2.1836,2.1844,2.1838,2.183,2.183,2.1841,2.1841,2.1841,0,2.1458,2.15,2.1522,2.1537,2.1583,2.1593,2.1613,2.1645,2.1663,2.169,2.1703,2.1732,2.1749,2.1773,2.1802,2.1805,2.1833,2.1843,2.1848,2.1847,2.1852,2.1851,2.1847,2.1861,2.1861,2.1861,2.1861,0,2.145,2.1465,2.1512,2.1525,2.1544,2.1577,2.1595,2.1618,2.1647,2.1667,2.1694,2.1712,2.175,2.1773,2.1797,2.1822,2.1829,2.1843,2.185,2.1841,2.1839,2.1851,2.1852,2.1861,2.1861,2.1861,2.1861,0,2.1424,2.1456,2.1482,2.1525,2.1536,2.1549,2.1586,2.1602,2.1626,2.1651,2.1659,2.1697,2.1727,2.1759,2.1799,2.1815,2.1839,2.1847,2.1828,2.1832,2.1835,2.1835,2.1838,2.1841,2.1852,2.1852,2.1852,0,2.1417,2.143,2.1475,2.1491,2.151,2.1534,2.1553,2.1586,2.1605,2.1644,2.1655,2.1687,2.1713,2.1759,2.1791,2.1823,2.1833,2.1832,2.1837,2.183,2.1834,2.1833,2.1836,2.183,2.183,2.1829,2.1829,0,2.1402,2.1417,2.1443,2.1474,2.1496,2.1522,2.155,2.1561,2.1601,2.1621,2.1651,2.1672,2.1714,2.1746,2.1782,2.1804,2.1824,2.1828,2.1831,2.1822,2.1811,2.1818,2.1824,2.1827,2.1827,2.1827,2.1827,2.1828,2.1386,2.14,2.1434,2.1463,2.1487,2.1513,2.1531,2.1558,2.1584,2.1621,2.164,2.1671,2.1706,2.1757,2.1779,2.1804,2.181,2.1814,2.1815,2.1816,2.1814,2.1807,2.1811,2.1811,2.1811,2.1811,2.1811,0,2.1373,2.1397,2.1423,2.1462,2.1485,2.1502,2.1535,2.1553,2.158,2.161,2.1637,2.1674,2.1706,2.1742,2.1776,2.179,2.18,2.1798,2.1797,2.1803,2.1806,2.1801,2.1789,2.1789,2.1789,2.1789,2.1789,2.1789,2.1368,2.1394,2.1414,2.1453,2.1477,2.1508,2.1525,2.155,2.1576,2.1615,2.1642,2.1666,2.1699,2.1737,2.1768,2.1778,2.179,2.1785,2.1798,2.18,2.1802,2.1804,2.1799,2.1787,2.1787,2.1792,2.1792,2.1792]},{"header":{"parameterUnit":"m.s-1","parameterCategory":1,"la1":30.2991,"la2":30.254,"lo1":-89.0895,"lo2":-89.0444,"dy":0.0017,"dx":0.0017,"nx":28,"ny":28,"refTime":"2024-03-09T03:00:00:Z","depth":0,"parameterNumber":3,"parameterNumberName":"V-component_of_WINDS"},"data":[0,0,0,0,0,0,0,0,0,0,0,0,0,0,0,0,0,0,0,0,0,0,0,0,0,0,0,0,0,0,0,0,0,0,0,0,0,0,0,0,0,0,0,0,0,0,0,0,0,0,0,0,0,0,0,0,0,0,-4.3336,-4.3335,0,-4.322,-4.3219,-4.3218,-4.3194,-4.3195,-4.3195,-4.3196,-4.3073,-4.3069,-4.3065,0,0,0,0,0,0,0,0,0,0,0,0,0,-4.3533,-4.353,-4.3336,-4.3335,-4.3333,-4.3221,-4.3219,-4.3217,-4.3194,-4.3195,-4.3196,-4.3197,-4.3075,-4.307,-4.3065,0,0,0,0,0,0,0,0,0,0,0,0,0,-4.3436,-4.3529,-4.3336,-4.3308,-4.3304,-4.3221,-4.3219,-4.3217,-4.3193,-4.3195,-4.3196,-4.3197,-4.3076,-4.307,-4.3064,-4.3,0,0,-4.3046,-4.3043,0,0,0,0,0,0,0,0,-4.3441,-4.3428,-4.3314,-4.331,-4.3305,-4.3223,-4.3244,-4.3144,-4.3193,-4.3235,-4.3196,-4.3198,-4.3122,-4.3112,-4.3087,-4.2994,-4.2989,-4.3045,-4.3041,-4.3039,-4.3037,0,0,0,0,0,0,0,-4.3448,-4.3433,-4.329,-4.3312,-4.3307,-4.33,-4.3288,-4.3225,-4.3172,-4.3232,-4.323,-4.3217,-4.312,-4.3093,-4.3084,-4.2987,-4.3045,-4.304,-4.3036,-4.3033,-4.2836,-4.2834,0,0,0,0,0,0,-4.346,-4.3439,-4.3294,-4.3287,-4.3378,-4.3295,-4.3281,-4.3248,-4.3173,-4.3163,-4.3216,-4.3216,-4.3103,-4.3091,-4.308,-4.2999,-4.3039,-4.3033,-4.3029,-4.2837,-4.2836,-4.2834,0,0,0,0,0,0,-4.3465,-4.3448,-4.3299,-4.3362,-4.3343,-4.3291,-4.3253,-4.3245,-4.3218,-4.3161,-4.3151,-4.3198,-4.3104,-4.3088,-4.302,-4.2995,-4.303,-4.3025,-4.2839,-4.2837,-4.2835,-4.2838,0,0,0,0,0,0,-4.347,-4.3449,-4.3425,-4.3362,-4.334,-4.3242,-4.3252,-4.3242,-4.3208,-4.3208,-4.3142,-4.3132,-4.3103,-4.303,-4.3014,-4.2987,-4.302,-4.2841,-4.2838,-4.2836,-4.284,-4.2836,-4.2833,0,0,0,0,0,-4.3478,-4.3429,-4.3424,-4.3406,-4.3308,-4.3241,-4.3228,-4.3197,-4.3207,-4.3181,-4.3144,-4.3134,-4.3001,-4.3023,-4.3005,-4.2976,-4.2843,-4.2839,-4.2836,-4.2842,-4.2837,-4.2833,0,0,0,0,0,0,-4.3488,-4.342,-4.3413,-4.3344,-4.3298,-4.3237,-4.3203,-4.3193,-4.3142,-4.3143,-4.3106,-4.3091,-4.3026,-4.2994,-4.302,-4.291,-4.2922,-4.2915,-4.2933,-4.2928,-4.2924,-4.2932,-4.3015,0,0,0,0,0,-4.3483,-4.3435,-4.3378,-4.3322,-4.33,-4.3256,-4.3225,-4.3206,-4.3156,-4.3136,-4.3095,-4.3046,-4.2993,-4.2959,-4.2907,-4.2836,-4.2821,-4.2807,-4.2804,-4.2801,-4.2795,-4.2755,-4.2748,-4.2822,-4.2822,-4.2822,0,0,-4.347,-4.3427,-4.3399,-4.3323,-4.3285,-4.3236,-4.3239,-4.3186,-4.3149,-4.3128,-4.3061,-4.3029,-4.2973,-4.2903,-4.2871,-4.2875,-4.2771,-4.2797,-4.2795,-4.279,-4.275,-4.2743,-4.2737,-4.282,-4.282,-4.2821,0,0,-4.3422,-4.3385,-4.3334,-4.3298,-4.3242,-4.3213,-4.3201,-4.3142,-4.312,-4.3053,-4.3037,-4.2992,-4.2901,-4.2862,-4.283,-4.2769,-4.2758,-4.2754,-4.2734,-4.2696,-4.269,-4.2684,-4.2662,-4.2654,-4.2748,-4.2748,-4.2748,0,-4.3413,-4.3338,-4.3309,-4.3257,-4.3224,-4.3206,-4.3154,-4.3119,-4.3048,-4.3025,-4.3032,-4.2919,-4.288,-4.2801,-4.2787,-4.2762,-4.2746,-4.276,-4.2693,-4.2688,-4.2682,-4.266,-4.2652,-4.2748,-4.2748,-4.2748,-4.2748,0,-4.3329,-4.3278,-4.3244,-4.3178,-4.3141,-4.309,-4.3052,-4.3018,-4.3003,-4.2974,-4.2906,-4.2859,-4.2797,-4.2778,-4.2761,-4.2696,-4.2701,-4.2701,-4.2712,-4.2675,-4.2654,-4.2645,-4.2747,-4.2747,-4.2747,-4.2747,0,0,-4.3281,-4.3203,-4.319,-4.3161,-4.3099,-4.3058,-4.3006,-4.2948,-4.2919,-4.2872,-4.2826,-4.2752,-4.2752,-4.2716,-4.2695,-4.2662,-4.2616,-4.2666,-4.2664,-4.2657,-4.2541,-4.254,-4.2531,-4.261,-4.2608,-4.2607,-4.2546,0,-4.3224,-4.3132,-4.3105,-4.3026,-4.2979,-4.2962,-4.2916,-4.2873,-4.2845,-4.2799,-4.2768,-4.2715,-4.272,-4.2698,-4.2665,-4.2629,-4.2592,-4.2633,-4.2565,-4.2563,-4.2578,-4.252,-4.2518,-4.2463,-4.2537,-4.2536,-4.2535,0,-4.3145,-4.3098,-4.3015,-4.2961,-4.294,-4.2899,-4.2844,-4.2802,-4.2752,-4.2734,-4.2696,-4.2678,-4.2622,-4.2639,-4.2561,-4.2589,-4.256,-4.2539,-4.2536,-4.2526,-4.2545,-4.2508,-4.2445,-4.2436,-4.2522,-4.2523,-4.2524,0,-4.3117,-4.3033,-4.2973,-4.2948,-4.2884,-4.2856,-4.2827,-4.278,-4.2747,-4.2699,-4.2677,-4.2622,-4.2592,-4.255,-4.2518,-4.2533,-4.2442,-4.2456,-4.2424,-4.2425,-4.2404,-4.2405,-4.2334,-4.2389,-4.2389,-4.2389,-4.2389,0,-4.3055,-4.3004,-4.296,-4.2922,-4.2865,-4.2836,-4.278,-4.2751,-4.2709,-4.2665,-4.2648,-4.2606,-4.2568,-4.2521,-4.2496,-4.2435,-4.2422,-4.2405,-4.2398,-4.2405,-4.2407,-4.2384,-4.2386,-4.2387,-4.2387,-4.2388,-4.2388,0,-4.3013,-4.2981,-4.2914,-4.286,-4.2845,-4.2805,-4.2758,-4.272,-4.2693,-4.2638,-4.2623,-4.2579,-4.2524,-4.2489,-4.2418,-4.2401,-4.2334,-4.2329,-4.2351,-4.2347,-4.2317,-4.232,-4.2226,-4.2212,-4.2278,-4.2278,-4.2277,0,-4.2974,-4.2935,-4.2878,-4.2848,-4.282,-4.2772,-4.2739,-4.2709,-4.2675,-4.2617,-4.2587,-4.2531,-4.2484,-4.2397,-4.2357,-4.2303,-4.2296,-4.2268,-4.2288,-4.2296,-4.2294,-4.2296,-4.2292,-4.2263,-4.2263,-4.2262,-4.2262,0,-4.2909,-4.2896,-4.285,-4.2799,-4.276,-4.2718,-4.2676,-4.2652,-4.2615,-4.2578,-4.2522,-4.2486,-4.2415,-4.2359,-4.2302,-4.2272,-4.226,-4.2257,-4.2246,-4.2251,-4.2265,-4.2256,-4.234,-4.2258,-4.2258,-4.2259,-4.2259,-4.2259,-4.2866,-4.2831,-4.2785,-4.2735,-4.2701,-4.2662,-4.2625,-4.2594,-4.2547,-4.2488,-4.2474,-4.2415,-4.2368,-4.229,-4.2259,-4.2212,-4.2215,-4.22,-4.2196,-4.2193,-4.2191,-4.2275,-4.2201,-4.2201,-4.2201,-4.2202,-4.2202,0,-4.2799,-4.2769,-4.2724,-4.2666,-4.2626,-4.2622,-4.2576,-4.2542,-4.2492,-4.2449,-4.2405,-4.2341,-4.2287,-4.2245,-4.219,-4.2161,-4.2154,-4.2147,-4.2147,-4.214,-4.2192,-4.2206,-4.2153,-4.2153,-4.2153,-4.2153,-4.2153,-4.2153,-4.2759,-4.2699,-4.2681,-4.2605,-4.2575,-4.2519,-4.2493,-4.2457,-4.2423,-4.2353,-4.231,-4.2284,-4.2241,-4.2183,-4.2134,-4.2123,-4.2102,-4.2096,-4.2084,-4.2132,-4.2137,-4.2142,-4.2155,-4.2092,-4.2092,-4.2036,-4.2035,-4.2035]}]]